Location: Masseria Balzano
(40.7667°N, 14.4833°E)
Time: 14:37:02
(UTC+00:00)

Daily predictions for brighter satellites

Satellite Brightness Start Highest point End
(mag) Time Altitude Azimuth Time Altitude Azimuth Time Altitude Azimuth
USA 290 3.9 18:33:20 10° NNE 18:35:48 20° ENE 18:38:14 10° ESE
USA 186 1.0 18:34:30 10° SSE 18:37:02 70° ENE 18:39:25 10° N
Cosmos 1408 Rocket 4.2 18:33:39 10° NNW 18:38:01 63° W 18:42:24 10° S
Cosmos 1689 Rocket 3.8 18:37:03 10° N 18:39:38 35° WNW 18:42:12 10° SW
Cosmos 2278 Rocket 3.9 18:38:04 10° ESE 18:40:24 13° E 18:42:43 10° ENE
IRIS 3.5 18:40:03 10° W 18:42:22 79° N 18:44:57 10° E
Cosmos 1842 Rocket 4.5 18:38:02 10° SSW 18:42:25 55° W 18:46:51 10° N
USA 267 4.0 18:37:34 10° SSE 18:43:51 48° SW 18:50:11 10° WNW
Cosmos 1844 Rocket 2.7 18:38:39 10° SSW 18:44:13 89° ESE 18:49:50 10° NNE
BREEZE-M R/B 2.9 18:41:52 10° WSW 18:45:01 49° NNW 18:47:25 10° NE
Cosmos 1606 2.7 18:43:43 10° S 18:47:29 89° WNW 18:51:17 10° N
Cosmos 1782 4.3 18:47:11 10° SE 18:50:00 19° E 18:52:49 10° NE
CZ-4C R/B 4.1 18:44:48 10° NNW 18:50:54 29° NE 18:57:48 10° E
FALCON 9 DEB 4.5 18:48:20 10° WNW 18:50:58 27° SW 18:53:35 10° SSE
GPS 2-04 Rocket1 3.9 18:47:44 10° SW 18:51:11 26° SSE 18:54:33 10° ESE
ERS-2 2.7 18:47:40 10° N 18:51:16 63° WNW 18:54:51 10° SSW
Cosmos 1242 Rocket 3.3 18:50:48 10° SSE 18:54:01 32° E 18:57:13 10° NNE
Cosmos 1805 Rocket 3.6 18:53:18 10° N 18:57:36 58° E 19:01:54 10° SSE
SJ-6B 2.9 18:56:39 10° S 19:00:30 81° WSW 19:04:29 10° NNW
MOS 1 4.3 18:55:38 10° SSE 19:01:14 68° ENE 19:06:52 10° N
Cosmos 1633 Rocket 4.3 19:00:04 10° NNE 19:03:43 25° ENE 19:06:32 14° ESE
MOS 1-B Rocket 4.3 18:56:59 10° NNE 19:04:21 86° ESE 19:10:35 10° SSW
ATLAS 5 CENTAUR R/B 2.8 18:59:01 10° NNW 19:04:35 53° NE 19:10:14 14° SE
Cosmos 1503 Rocket 3.9 19:02:10 10° S 19:07:17 70° ESE 19:12:29 10° NNE
DELTA 2 R/B (1) 3.8 19:03:28 10° W 19:08:57 59° SSW 19:13:26 15° ESE
Cosmos 1386 Rocket 4.4 19:04:19 10° N 19:10:22 71° E 19:16:28 10° SSE
Cosmos 1743 Rocket 4.5 19:08:04 10° NNW 19:12:16 49° W 19:16:29 10° SSW
Cosmos 1844 4.2 19:08:29 10° SSW 19:14:10 65° WNW 19:19:50 10° NNE
Ariane Rocket 3.0 19:11:04 10° SSE 19:16:07 87° ENE 19:21:13 10° NNW
BREEZE-M DEB (TANK) 3.1 19:14:20 10° W 19:16:25 31° SW 19:18:33 15° SSE
ARIANE 5 R/B 4.5 19:14:50 12° E 19:16:49 16° ENE 19:19:26 10° NNE
Resurs 1-3 3.6 19:16:03 10° SSE 19:20:26 89° ENE 19:24:51 10° NNW
Cosmos 1833 Rocket 4.0 19:17:13 10° N 19:21:53 26° NE 19:25:22 15° ESE
SL-4 R/B 3.5 19:18:32 10° WNW 19:22:30 33° SW 19:26:00 14° SSE
Cosmos 1745 Rocket 4.0 19:18:14 10° N 19:24:27 88° W 19:30:35 10° S
Cosmos 1709 Rocket 4.1 19:20:51 10° N 19:26:52 56° E 19:31:35 17° SSE
BREEZE-M DEB (TANK) 4.2 19:26:25 10° WNW 19:30:43 73° NNE 19:38:55 13° ESE
Cosmos 1666 Rocket 3.6 19:27:52 10° N 19:32:13 62° E 19:34:59 21° SSE
Cosmos 1437 3.0 19:33:32 35° ESE 19:33:52 36° E 19:36:31 10° NNE
NOSS 3-3 (A) 3.8 19:31:51 10° SSW 19:37:29 89° ESE 19:43:54 10° NE
NOSS 3-3 (C) 3.8 19:31:57 10° SSW 19:37:35 88° SE 19:44:00 10° NE
CZ-2C R/B 3.8 19:34:50 10° NNE 19:39:15 53° E 19:42:31 18° S
Cosmos 1354 Rocket 4.3 19:35:15 10° SSW 19:40:27 69° WNW 19:45:42 10° NNE
USA 245 4.2 19:43:37 16° NE 19:43:37 16° NE 19:44:35 10° NNE
SJ 16-02 2.3 19:42:35 26° ESE 19:43:10 27° E 19:46:55 10° NE
OBJECT-B 3.5 19:42:41 10° SW 19:44:51 17° W 19:47:04 10° NW
SPOT 1/Viking Rocket 3.9 19:42:56 25° SE 19:45:44 51° ENE 19:50:46 10° N
Meteor 1-26 Rocket 4.2 19:40:17 10° S 19:46:00 89° W 19:51:34 10° N
Sich 1 3.8 19:42:06 10° NNW 19:46:20 51° W 19:50:17 12° SSW
Cosmos 2315 Rocket 4.0 19:41:24 10° S 19:47:45 81° E 19:54:10 10° N
Iridium 4 Rocket 4.5 19:51:13 27° SE 19:53:26 36° E 19:58:46 10° NNE
Cosmos 1500 3.3 19:51:39 10° N 19:55:20 53° E 19:56:07 43° ESE
Terra 3.4 19:54:08 18° E 19:55:23 20° ENE 19:58:50 10° NNE
BREEZE M DEB (TANK) 4.0 19:54:26 10° NW 19:58:01 21° N 19:59:40 13° NE
SPOT 3 Rocket 3.7 19:56:53 21° S 20:00:20 72° WSW 20:05:29 10° NNW
Cosmos 1151 Rocket 3.4 19:56:22 11° SSW 20:00:34 63° W 20:04:56 10° N
SPOT 5 3.9 19:59:19 27° ESE 20:01:00 34° ENE 20:05:41 10° N
Meteor 1-14 Rocket 4.2 19:55:33 10° N 20:01:24 73° E 20:04:21 30° SSE
Cosmos 2082 Rocket 3.5 19:57:00 10° N 20:01:44 27° NE 20:03:59 21° E
X-37B 0.4 20:01:23 10° WNW 20:04:35 84° SSW 20:04:42 80° SSE
Resurs 01 Rocket 2.3 20:02:15 20° S 20:05:04 52° W 20:09:26 10° NNW
Cosmos 2228 Rocket 4.2 20:08:07 27° E 20:08:07 27° E 20:11:37 10° NNE
COSMOS 2406 3.4 20:02:45 10° NNW 20:08:22 58° ENE 20:10:34 35° SE
Meteor 2-6 Rocket 4.0 20:12:08 31° S 20:14:45 71° E 20:20:14 10° NNE
Cosmos 1538 Rocket 4.2 20:11:53 10° NNW 20:17:11 59° ENE 20:18:45 42° SE
Meteor 1-27 Rocket 4.5 20:16:22 33° ESE 20:17:18 35° E 20:22:35 10° NNE
MetOp-B 4.4 20:15:10 27° S 20:18:05 65° WSW 20:23:26 10° NNW
Cosmos 1271 Rocket 3.1 20:19:15 49° E 20:19:15 49° E 20:22:57 10° NNE
Cosmos 773 Rocket 4.2 20:15:16 10° NNW 20:20:33 69° WSW 20:22:41 36° S
Cosmos 2278 Rocket 2.2 20:17:59 10° SSW 20:23:39 83° WNW 20:29:20 10° NNE
Spot 2 Rocket 3.4 20:22:06 44° SSE 20:23:45 85° ENE 20:28:49 10° NNW
BREEZE-M DEB (TANK) 3.9 20:26:38 10° NNW 20:27:55 15° NNE 20:27:55 15° NNE
GPS 2-04 Rocket1 4.0 20:26:22 10° WSW 20:28:41 28° SW 20:28:41 28° SW
USA 305 3.9 20:26:25 10° NW 20:30:26 39° NNE 20:31:23 34° ENE
Cosmos 1943 Rocket 3.9 20:32:27 17° ENE 20:32:27 17° ENE 20:34:38 10° NE
Cosmos 1515 Rocket 3.8 20:29:37 37° SSW 20:31:15 67° W 20:35:38 10° N
ERS-1 Rocket 3.0 20:30:20 51° SE 20:31:23 66° ENE 20:36:22 10° N
BREEZE-M DEB (TANK) 3.8 20:30:39 10° WNW 20:35:39 33° SW 20:35:39 33° SW
Cosmos 1869 Rocket 4.3 20:35:10 10° N 20:38:55 39° ENE 20:38:55 39° ENE
CZ-4C R/B 3.0 20:32:44 10° NW 20:40:15 82° WSW 20:43:47 40° SSE
Meteor 1-11 Rocket 3.8 20:40:45 10° N 20:46:42 67° ENE 20:47:53 54° SE
Cosmos 1812 4.2 20:47:18 27° WSW 20:48:29 34° WNW 20:52:02 10° N
ATLAS 5 CENTAUR R/B 3.8 20:44:00 10° NW 20:49:10 30° WSW 20:51:47 23° SSW
USA 306 3.4 20:45:38 10° NW 20:49:49 52° NE 20:49:58 51° NE
ARIANE 5 R/B 3.2 20:52:22 45° WSW 20:52:53 47° W 20:57:05 10° NNW
Cosmos 1340 Rocket 4.3 20:52:44 10° N 20:55:28 29° NE 20:55:28 29° NE
CARTOSAT-1 4.2 20:56:42 44° WSW 20:57:05 46° W 21:01:15 10° NNW
Cosmos 1666 3.7 20:57:19 10° NNW 21:00:28 41° WNW 21:00:28 41° WNW
Meteor 2-12 Rocket 4.3 20:58:09 10° N 21:04:14 89° E 21:05:22 62° S
SL-24 DEB 4.2 21:05:35 80° NNE 21:05:35 80° NNE 21:09:58 10° N
Cosmos 1833 Rocket 3.2 21:00:38 10° NW 21:06:02 48° WSW 21:07:04 43° SW
Cosmos 1898 Rocket 3.7 21:07:15 58° ENE 21:07:15 58° ENE 21:12:00 10° NNE
Cosmos 2154 Rocket 3.9 21:02:10 10° N 21:08:32 87° E 21:09:43 62° SSE
Cosmos 923 Rocket 3.9 21:04:47 10° NNW 21:10:03 75° ENE 21:10:12 74° E
Cosmos 1536 3.6 21:07:29 10° N 21:10:33 50° N 21:10:33 50° N
Cosmos 2184 Rocket 4.4 21:09:49 10° NNW 21:15:52 56° W 21:17:33 43° SW
Cosmos 1743 4.3 21:12:13 10° N 21:14:28 30° NNE 21:14:28 30° NNE
USA 307 3.5 21:12:12 10° NW 21:15:38 55° NNW 21:15:38 55° NNW
H-2A R/B 4.1 21:14:29 10° N 21:18:18 52° WNW 21:18:18 52° WNW
Cosmos 990 Rocket 3.9 21:20:01 80° WSW 21:20:11 81° WNW 21:25:28 10° NNE
SJ 16-02 3.3 21:19:29 18° WSW 21:21:40 26° WNW 21:25:26 10° N
Nadezhda 1 Rocket 4.2 21:19:52 46° SW 21:21:41 67° W 21:27:55 10° N
NOSS 3-4 (A) 3.8 21:15:13 10° NW 21:22:23 83° WSW 21:24:06 58° SSE
NOSS 3-4 (C) 3.8 21:15:20 10° NW 21:22:29 84° WSW 21:24:13 58° SSE
Cosmos 962 Rocket 4.4 21:16:25 10° N 21:22:30 65° E 21:22:54 63° ESE
Cosmos 2297 3.6 21:22:46 74° E 21:22:46 74° E 21:28:14 10° NNE
Cosmos 1733 Rocket 4.3 21:24:57 10° N 21:27:49 34° NE 21:27:49 34° NE
USA 308 4.0 21:25:48 10° NW 21:28:43 42° NW 21:28:43 42° NW
Terra 2.6 21:33:01 43° W 21:33:01 43° W 21:37:21 10° NNW
ATLAS 2AS CENTAUR R/B 2.7 21:28:38 10° NNW 21:35:57 74° NE 21:37:04 62° ESE
SPOT 5 4.3 21:38:33 28° WSW 21:39:01 29° W 21:43:33 10° NW
Cosmos 2181 Rocket 3.9 21:44:37 68° E 21:44:37 68° E 21:50:35 10° NNE
Cosmos 2082 Rocket 2.8 21:40:40 10° NW 21:45:50 44° WSW 21:45:50 44° WSW
Cosmos 2112 Rocket 4.2 21:43:22 10° NNW 21:48:11 69° NW 21:48:11 69° NW
Cosmos 44 3.7 21:47:13 10° NNW 21:51:59 66° N 21:51:59 66° N
Cosmos 2366 rocket 4.0 21:49:50 10° N 21:55:56 66° ENE 21:55:56 66° ENE
Cosmos 2341 Rocket 4.0 21:57:30 10° NNW 22:03:52 69° W 22:04:08 68° WSW
Cosmos 1937 Rocket 4.1 22:09:31 50° NW 22:09:31 50° NW 22:14:18 10° N
Cosmos 489 Rocket 4.4 22:07:11 10° NNW 22:13:17 80° NE 22:13:17 80° NE
Cosmos 1943 Rocket 2.6 22:13:55 57° WNW 22:13:58 57° WNW 22:19:31 10° NNE
Cosmos 2369 Rocket 2.6 22:17:10 58° NE 22:17:10 58° NE 22:21:41 10° NNE
Cosmos 2218 Rocket 3.9 22:12:04 10° N 22:18:16 81° WNW 22:18:16 81° WNW
Centaur D AC-29 4.3 21:50:55 10° WSW 22:20:13 35° SSW 22:20:13 35° SSW
Gbstr 26 Del rocket 4.3 22:15:45 10° NW 22:22:48 60° NNE 22:23:48 53° ENE
Cosmos 1238 Rocket 4.3 22:19:56 10° NNW 22:25:13 49° WNW 22:25:13 49° WNW
Cosmos 1607 4.2 22:26:50 59° ENE 22:26:50 59° ENE 22:32:19 10° NE
Cosmos 1656 Rocket 4.3 22:35:34 48° NE 22:35:34 48° NE 22:39:35 10° NNE
Nadezhda 3 Rocket 4.3 22:35:11 58° ENE 22:35:11 58° ENE 22:40:47 10° NNE
Cosmos 1818 4.2 22:30:07 10° NW 22:34:12 49° NW 22:34:12 49° NW
ALOS 2 4.1 22:41:06 35° NNW 22:41:06 35° NNW 22:43:40 10° NNW
Cosmos 2263 4.5 22:43:18 65° NNE 22:43:18 65° NNE 22:48:13 10° NNE
Meteor 2-4 Rocket 4.1 22:47:05 60° NW 22:47:05 60° NW 22:52:06 10° N
BREEZE-M DEB (TANK) 4.0 22:47:30 10° WNW 22:58:40 71° N 22:58:40 71° N
RESURS DK-1 4.4 23:01:36 10° NNW 23:03:31 26° NNW 23:03:31 26° NNW
SeaSat 1 3.3 23:05:07 10° NNE 23:08:32 45° NE 23:08:32 45° NE
Cosmos 1833 4.5 23:04:25 10° NNW 23:09:23 66° N 23:09:23 66° N
Meteor 1-12 Rocket 4.5 23:07:38 10° N 23:12:43 68° NNW 23:12:43 68° NNW
Cosmos 2239 Rocket 4.5 23:07:36 10° N 23:13:34 79° NNW 23:13:34 79° NNW
ISS -0.4 23:18:17 12° NNE 23:18:17 12° NNE 23:18:48 10° NNE
USA 215 3.6 23:13:57 35° E 23:16:39 60° NE 23:23:04 10° NW
Cosmos 1125 Rocket 4.2 23:26:49 50° NNW 23:26:49 50° NNW 23:31:03 10° NNE
Cosmos 1867 4.5 23:25:56 42° NW 23:25:56 42° NW 23:31:07 10° NNE
ATLAS 2AS CENTAUR R/B 4.3 23:21:00 10° WNW 23:24:29 20° W 23:24:29 20° W
Cosmos 44 Rocket 4.2 23:26:41 10° NNW 23:31:24 49° NE 23:31:24 49° NE
ATLAS CENTAUR R/B 3.6 23:38:29 20° N 23:38:29 20° N 23:40:05 10° NNE
USA 281 4.2 23:36:59 26° ESE 23:40:01 41° ENE 23:46:05 10° N
Cosmos 1934 Rocket 4.0 23:36:31 10° N 23:42:10 71° NW 23:42:10 71° NW
Cosmos 1339 Rocket 4.4 23:42:53 89° NNE 23:42:53 89° NNE 23:49:16 10° N
USA 81 4.3 23:46:06 10° N 23:50:37 65° N 23:50:37 65° N
Lacrosse 5 2.5 23:54:51 51° NE 23:54:51 51° NE 23:58:39 10° NE
